Stündliche Wetter Bar-le-Duc

Heute, 28 Oktober, Mittwoch

Zeit Temperatur Niederschläge Wind Luftdruck Luftfeuchtigkeit
00:00 +10°C° 0 mm 8 m/S 735 mmHg 90%
01:00 +10°C° 0.1 mm 7 m/S 735 mmHg 91%
02:00 +10°C° 0.1 mm 7 m/S 735 mmHg 92%
03:00 +10°C° 0.1 mm 7 m/S 735 mmHg 93%
04:00 +10°C° 0.3 mm 7 m/S 736 mmHg 92%
05:00 +10°C° 0.3 mm 6 m/S 736 mmHg 91%
06:00 +10°C° 0 mm 6 m/S 737 mmHg 91%
07:00 +10°C° 0.1 mm 6 m/S 737 mmHg 89%
08:00 +10°C° 0.1 mm 7 m/S 738 mmHg 87%
09:00 +10°C° 0.1 mm 7 m/S 739 mmHg 85%
10:00 +11°C° 0 mm 7 m/S 739 mmHg 80%
11:00 +11°C° 0 mm 7 m/S 739 mmHg 75%
12:00 +12°C° 0 mm 7 m/S 739 mmHg 69%
13:00 +11°C° 0 mm 7 m/S 739 mmHg 71%
14:00 +11°C° 0 mm 7 m/S 739 mmHg 73%
15:00 +11°C° 0 mm 6 m/S 739 mmHg 75%
16:00 +11°C° 0 mm 6 m/S 739 mmHg 77%
17:00 +10°C° 0 mm 7 m/S 739 mmHg 79%
18:00 +10°C° 0 mm 7 m/S 739 mmHg 81%
19:00 +10°C° 0.1 mm 7 m/S 739 mmHg 82%
20:00 +10°C° 0.1 mm 8 m/S 739 mmHg 82%
21:00 +10°C° 0.1 mm 8 m/S 740 mmHg 83%
22:00 +10°C° 0.4 mm 8 m/S 740 mmHg 85%
23:00 +10°C° 0.4 mm 8 m/S 740 mmHg 87%

Morgen, 29 Oktober, Donnerstag

Zeit Temperatur Niederschläge Wind Luftdruck Luftfeuchtigkeit
00:00 +10°C° 0.4 mm 8 m/S 740 mmHg 88%
01:00 +10°C° 0.4 mm 8 m/S 740 mmHg 89%
02:00 +9°C° 0.4 mm 8 m/S 740 mmHg 89%
03:00 +9°C° 0.4 mm 8 m/S 741 mmHg 90%
04:00 +9°C° 0.4 mm 7 m/S 741 mmHg 90%
05:00 +9°C° 0.4 mm 7 m/S 742 mmHg 91%
06:00 +9°C° 0.4 mm 7 m/S 742 mmHg 91%
07:00 +9°C° 0.1 mm 7 m/S 743 mmHg 90%
08:00 +9°C° 0.1 mm 7 m/S 744 mmHg 89%
09:00 +10°C° 0.1 mm 6 m/S 744 mmHg 87%
10:00 +10°C° 0.1 mm 6 m/S 745 mmHg 84%
11:00 +11°C° 0.1 mm 6 m/S 745 mmHg 81%
12:00 +13°C° 0.1 mm 6 m/S 745 mmHg 78%
13:00 +13°C° 0.1 mm 5 m/S 745 mmHg 79%
14:00 +12°C° 0.1 mm 4 m/S 745 mmHg 81%
15:00 +12°C° 0.1 mm 3 m/S 745 mmHg 83%
16:00 +12°C° 0 mm 3 m/S 746 mmHg 85%
17:00 +11°C° 0 mm 3 m/S 746 mmHg 88%
18:00 +11°C° 0 mm 3 m/S 746 mmHg 90%
19:00 +11°C° 0.1 mm 4 m/S 746 mmHg 90%
20:00 +11°C° 0.1 mm 4 m/S 746 mmHg 91%
21:00 +12°C° 0.1 mm 5 m/S 746 mmHg 91%
22:00 +10°C° 0 mm 5 m/S 746 mmHg 91%
23:00 +10°C° 0 mm 5 m/S 746 mmHg 91%

übermorgen, 30 Oktober, Freitag

Zeit Temperatur Niederschläge Wind Luftdruck Luftfeuchtigkeit
00:00 +10°C° 0 mm 5 m/S 746 mmHg 91%
01:00 +10°C° 0 mm 5 m/S 746 mmHg 92%
02:00 +10°C° 0 mm 5 m/S 746 mmHg 93%
03:00 +10°C° 0 mm 5 m/S 746 mmHg 93%
04:00 +11°C° 0 mm 4 m/S 746 mmHg 93%
05:00 +11°C° 0 mm 4 m/S 746 mmHg 94%
06:00 +11°C° 0 mm 4 m/S 746 mmHg 94%
07:00 +11°C° 0 mm 4 m/S 747 mmHg 92%
08:00 +12°C° 0 mm 5 m/S 747 mmHg 90%
09:00 +12°C° 0 mm 5 m/S 747 mmHg 89%
10:00 +13°C° 0 mm 5 m/S 747 mmHg 86%
11:00 +13°C° 0 mm 5 m/S 747 mmHg 84%
12:00 +14°C° 0 mm 5 m/S 747 mmHg 82%
13:00 +14°C° 0 mm 4 m/S 747 mmHg 83%
14:00 +13°C° 0 mm 4 m/S 747 mmHg 84%
15:00 +13°C° 0 mm 3 m/S 747 mmHg 86%
16:00 +13°C° 0 mm 2 m/S 747 mmHg 87%
17:00 +13°C° 0 mm 2 m/S 747 mmHg 88%
18:00 +12°C° 0 mm 1 m/S 747 mmHg 89%
19:00 +12°C° 0 mm 1 m/S 747 mmHg 88%
20:00 +12°C° 0 mm 1 m/S 747 mmHg 87%
21:00 +12°C° 0 mm 0 m/S 748 mmHg 86%
22:00 +12°C° 0 mm 1 m/S 747 mmHg 87%
23:00 +11°C° 0 mm 1 m/S 747 mmHg 88%

31 Oktober, Samstag

Zeit Temperatur Niederschläge Wind Luftdruck Luftfeuchtigkeit
00:00 +11°C° 0 mm 1 m/S 747 mmHg 90%
01:00 +10°C° 0 mm 1 m/S 747 mmHg 91%
02:00 +10°C° 0 mm 1 m/S 747 mmHg 92%
03:00 +8°C° 0 mm 2 m/S 746 mmHg 94%
04:00 +8°C° 0 mm 2 m/S 746 mmHg 94%
05:00 +8°C° 0 mm 2 m/S 746 mmHg 94%
06:00 +8°C° 0 mm 2 m/S 746 mmHg 94%
07:00 +9°C° 0 mm 2 m/S 746 mmHg 91%
08:00 +12°C° 0 mm 2 m/S 746 mmHg 87%
09:00 +12°C° 0 mm 3 m/S 746 mmHg 83%
10:00 +13°C° 0 mm 3 m/S 746 mmHg 80%
11:00 +14°C° 0 mm 3 m/S 745 mmHg 76%
12:00 +17°C° 0 mm 3 m/S 745 mmHg 73%
13:00 +17°C° 0 mm 3 m/S 744 mmHg 75%
14:00 +16°C° 0 mm 3 m/S 744 mmHg 78%
15:00 +16°C° 0 mm 3 m/S 743 mmHg 80%
16:00 +14°C° 0 mm 3 m/S 743 mmHg 84%
17:00 +12°C° 0 mm 3 m/S 743 mmHg 88%
18:00 +11°C° 0 mm 3 m/S 743 mmHg 92%
19:00 +11°C° 0 mm 3 m/S 743 mmHg 92%
20:00 +10°C° 0 mm 3 m/S 743 mmHg 92%
21:00 +10°C° 0 mm 3 m/S 743 mmHg 91%
22:00 +10°C° 0 mm 3 m/S 743 mmHg 90%
23:00 +10°C° 0 mm 3 m/S 743 mmHg 88%

1 November, Sonntag

Zeit Temperatur Niederschläge Wind Luftdruck Luftfeuchtigkeit
00:00 +10°C° 0 mm 3 m/S 743 mmHg 86%
01:00 +8°C° 0 mm 4 m/S 742 mmHg 85%
02:00 +8°C° 0 mm 4 m/S 742 mmHg 84%
03:00 +8°C° 0 mm 4 m/S 742 mmHg 84%
04:00 +8°C° 0 mm 4 m/S 742 mmHg 85%
05:00 +10°C° 0 mm 4 m/S 742 mmHg 86%
06:00 +10°C° 0 mm 4 m/S 742 mmHg 87%
07:00 +10°C° 0 mm 5 m/S 742 mmHg 83%
08:00 +12°C° 0 mm 5 m/S 742 mmHg 80%
09:00 +13°C° 0 mm 6 m/S 742 mmHg 76%
10:00 +14°C° 0 mm 6 m/S 742 mmHg 76%
11:00 +14°C° 0 mm 5 m/S 742 mmHg 75%
12:00 +15°C° 0 mm 5 m/S 742 mmHg 74%
13:00 +14°C° 0 mm 5 m/S 741 mmHg 74%
14:00 +14°C° 0 mm 5 m/S 741 mmHg 74%
15:00 +14°C° 0 mm 5 m/S 741 mmHg 73%
16:00 +14°C° 0 mm 5 m/S 741 mmHg 72%
17:00 +15°C° 0 mm 6 m/S 741 mmHg 71%
18:00 +15°C° 0 mm 6 m/S 741 mmHg 69%
19:00 +15°C° 0 mm 6 m/S 741 mmHg 71%
20:00 +15°C° 0 mm 5 m/S 740 mmHg 72%
21:00 +15°C° 0 mm 5 m/S 740 mmHg 74%
22:00 +15°C° 0 mm 5 m/S 740 mmHg 73%
23:00 +15°C° 0 mm 5 m/S 740 mmHg 73%

2 November, Montag

Zeit Temperatur Niederschläge Wind Luftdruck Luftfeuchtigkeit
00:00 +15°C° 0 mm 5 m/S 740 mmHg 72%
01:00 +15°C° 0 mm 5 m/S 740 mmHg 71%
02:00 +15°C° 0 mm 5 m/S 739 mmHg 70%
03:00 +15°C° 0 mm 4 m/S 739 mmHg 69%
04:00 +14°C° 0 mm 5 m/S 739 mmHg 69%
05:00 +14°C° 0 mm 5 m/S 739 mmHg 69%
06:00 +14°C° 0 mm 5 m/S 739 mmHg 70%
07:00 +14°C° 0 mm 5 m/S 739 mmHg 71%
08:00 +15°C° 0 mm 5 m/S 739 mmHg 72%
09:00 +15°C° 0 mm 5 m/S 739 mmHg 73%
10:00 +15°C° 0 mm 5 m/S 739 mmHg 72%
11:00 +16°C° 0 mm 5 m/S 739 mmHg 72%
12:00 +16°C° 0 mm 5 m/S 739 mmHg 72%
13:00 +16°C° 0 mm 5 m/S 739 mmHg 73%
14:00 +16°C° 0 mm 5 m/S 738 mmHg 74%
15:00 +16°C° 0 mm 5 m/S 738 mmHg 75%
16:00 +15°C° 0.3 mm 5 m/S 739 mmHg 79%
17:00 +14°C° 0.3 mm 5 m/S 739 mmHg 83%
18:00 +14°C° 0.3 mm 5 m/S 739 mmHg 87%
19:00 +14°C° 0.8 mm 5 m/S 740 mmHg 89%
20:00 +13°C° 0.8 mm 5 m/S 740 mmHg 91%
21:00 +13°C° 0.8 mm 5 m/S 741 mmHg 94%
22:00 +13°C° 0.4 mm 4 m/S 741 mmHg 94%
23:00 +12°C° 0.4 mm 3 m/S 741 mmHg 94%
Mehr zeigen